Location: Marcé
(47.5801°N, 0.3280°W)
Time: 15:19:17
(UTC+01:00)

Vanguard 1 - Pass Details

Date: 05 December 2021
Orbit: 652 x 3830 km, 34.2° (Epoch: 19 January)

Event Time Altitude Azimuth Distance (km) Brightness Sun altitude
Rises 06:38:09 0° 279° (W) 7,898 - -18.6°
Reaches altitude 10° 06:44:56 10° 271° (W) 6,635 - -17.5°
Exits shadow 06:48:28 15° 264° (W) 5,983 13.5 -16.9°
Maximum altitude 07:00:23 29° 222° (SW) 4,226 13.0 -15.0°
Drops below altitude 10° 07:10:59 10° 169° (S) 4,477 13.8 -13.3°
Sets 07:14:29 0° 158° (SSE) 5,055 14.4 -12.7°
